Погода в Веселом

Россия / Ростовская область     47°35′41″N   39°38′22″E
темп.,
°C
ветер,
м/с
пор.,
м/с
влажн.,
%
обл.,
%
осадки,
мм/ч
давл.,
гПа
погр.,
м
18 сентября, сб
сб1800:00+14ююв47505 0.0 1016132
03:00+13ююв35695 0.0 101675
06:00+12юв2271100 0.0 101618
09:00+17юв454751 0.0 1016421
12:00+23вюв44267 0.0 10151551
15:00+24вюв44235 0.0 10131945
18:00+22вюв473598 0.0 1013156
21:00+19вюв5125094 0.0 1013357
19 сентября, вс
вс1900:00+16вюв5105659 0.0 1013242
03:00+16вюв485398 0.0 1012213
06:00+15вюв3660100 0.0 1012114
09:00+17вюв4758100 0.3 1012263
12:00+23ю684473 0.0 10111146
15:00+24ююз5742100 0.2 10111672
18:00+18ююв239088 5.1 1011122
21:00+17юв4789100 10.8 1011297
20 сентября, пн
пн2000:00+17ююв369594 4.3 1010183
03:00+17ююз510927 6.7 1010391
06:00+16ю499334 3.1 1009261
09:00+18ююз510858 4.4 1010378
12:00+23зюз69421 0.0 10101584
15:00+23юз89395 0.0 10111332
18:00+20зюз595284 0.0 1011412
21:00+17ююз37690 0.3 1011190
21 сентября, вт
вт2100:00+17юз4108191 0.4 1011320
03:00+16зюз3688100 0.9 1012164
06:00+14сз3476100 0.0 1012184
09:00+14зсз3467100 0.3 1014370
12:00+17з3446100 0.1 10131101
15:00+18зюз463910 0.1 10131490
18:00+17зюз234671 0.0 101368
21:00+16сз355399 0.0 1014287
22 сентября, ср
ср2200:00+15з2456100 0.0 1014232
03:00+14з355972 0.0 1014473
06:00+10зсз58654 0.0 1016535
09:00+11зсз675955 0.0 10171170
12:00+12з6753100 0.0 10171445
15:00+12зсз6752100 0.0 10171584
18:00+12з3454100 0.0 10171022
21:00+11з2356100 0.0 1017731